Location: Unspecified
(0.0000°N, 0.0000°E)
Time: 00:04:47
(UTC+00:00)

Envisat - Pass Details

Date: 04 January 2018
Orbit: 764 x 766 km, 98.2° (Epoch: 22 July)

Event Time Altitude Azimuth Distance (km) Brightness Sun altitude
Rises 19:59:56 0° 167° (SSE) 3,227 6.4 -26.3°
Reaches altitude 10° 20:02:15 10° 167° (SSE) 2,299 5.6 -26.8°
Enters shadow 20:05:55 49° 162° (SSE) 979 3.5 -27.7°
